Weather in Efremov

Russia / Tula Oblast     53°08′15″N   38°07′03″E
temp.,
°C
wind,
m/s
gust,
m/s
humid.,
%
clouds,
%
prec.,
mm/h
press.,
hPa
HPBL,
m
7 march, sun
sun700:00−12w459033 0.0 101878
03:00−13wsw5109117 0.0 1017160
06:00−12sw614898 0.0 1014306
09:00−8sw9178254 0.0 1010634
12:00−5sw111883100 0.0 1005956
15:00−3sw121991100 0.2 10011254
18:00−2wsw111988100 0.4 9991136
21:00−2nw81494100 2.4 9991068
8 march, mon
mon800:00−7wsw4119294 0.3 1001228
03:00−9wsw5128547 0.3 1001238
06:00−9wsw5129242 0.0 1000301
09:00−7w6139064 0.0 1001582
12:00−5w7118792 0.0 1002895
15:00−4wnw7107894 0.1 10041209
18:00−8nw4108829 0.0 1006225
21:00−11wnw498934 0.0 1009189
9 march, tue
tue900:00−11wnw479550 0.0 1011137
03:00−14nw349653 0.0 101261
06:00−15nnw349693 0.0 101470
09:00−14nnw379496 0.0 1016230
12:00−12nnw358855 0.0 1017471
15:00−10nw458675 0.0 1018665
18:00−13nw3393100 0.0 101930
21:00−14nw3396100 0.1 102263
10 march, wed
wed1000:00−18nnw349232 0.0 102351
03:00−20nnw339416 0.0 102421
06:00−21nw23950 0.0 102520
09:00−18nw23966 0.0 102691
12:00−14nnw128667 0.0 1027314
15:00−12ssw118483 0.0 1026390
18:00−13se1296100 0.1 102521
21:00−15ese3397100 0.4 102686
11 march, thu
thu1100:00−15se479795 0.1 1026174
03:00−15sse489698 0.4 1026258
06:00−13sse5995100 0.3 1025300
09:00−11s5894100 0.6 1024314
12:00−8ssw6992100 0.1 1023407
15:00−6ssw61090100 0.1 1021445
18:00−7ssw41191100 0.0 1020342
21:00−7ssw51388100 0.0 1020367